Location: Bailleul
(50.3375°N, 2.8513°E)
Time: 15:10:57
(UTC+00:00)

Cosmos 2016 Rocket - Pass Details

Date: 31 October 2021
Orbit: 946 x 1000 km, 83.0° (Epoch: 01 December)

Event Time Altitude Azimuth Distance (km) Brightness Sun altitude
Rises 18:35:30 0° 176° (S) 3,640 6.9 -21.1°
Reaches altitude 10° 18:38:01 10° 173° (S) 2,691 6.2 -21.5°
Maximum altitude 18:44:04 63° 94° (E) 1,062 3.9 -22.4°
Drops below altitude 10° 18:50:06 10° 15° (NNE) 2,684 6.2 -23.4°
Sets 18:52:37 0° 12° (NNE) 3,631 6.9 -23.8°
